Regional Weather Roundup
Issued by NWS Charleston, SC

Current Version | Previous Version | Text Only | Print | Product List | Glossary On
Versions: 1 2 3 4 5 6 7 8 9 10 11 12 13 14 15 16 17 18 19 20 21 22 23 24 25 26 27 28 29 30 31 32 33 34 35 36 37 38 39 40 41 42 43 44 45 46 47 48 49 50
000 ASUS42 KCHS 262227 RWRCHS REGIONAL WEATHER ROUNDUP NATIONAL WEATHER SERVICE CHARLESTON SC 600 PM EDT TUE MAY 26 2015 NOTE: "FAIR" INDICATES FEW OR NO CLOUDS BELOW 12,000 FEET WITH NO SIGNIFICANT WEATHER AND/OR OBSTRUCTIONS TO VISIBILITY. NOT ALL STATIONS ARE QUALITY CONTROLLED BY THE NATIONAL WEATHER SERVICE. USE DATA WITH CAUTION...ESPECIALLY DEWPOINT OBSERVATIONS. SCZ027-030-031-034>040-042>050-262300- ...SOUTHEAST SOUTH CAROLINA... CITY SKY/WX TMP DP RH WIND PRES REMARKS N CHARLESTON PTSUNNY 84 67 56 S15 30.21R WATERFRONT PAR N/A 80 73 79 SE10 30.18S MOUNT PLEASANT LGT RAIN 79 73 83 SE5 30.22R JOHNS ISLAND PTCLDY 81 73 78 SE10 30.22S PINOPOLIS N/A 90 68 48 SE6 30.12S HX 93 MONCKS CORNER FAIR 84 68 58 S10G18 30.19S SUMMERVILLE FAIR 86 68 54 S7 30.20S BEAUFORT MCAS MOSUNNY 84 72 67 S9 30.20S BEAUFORT ARPT FAIR 81 72 74 SE7 30.19F HILTON HEAD IS NOT AVBL WALTERBORO MOCLDY 82 68 61 SE13 30.19S ALLENDALE FAIR 86 66 51 S9G16 30.17R ...SOUTHERN MIDLANDS AND PEE DEE... CITY SKY/WX TMP DP RH WIND PRES REMARKS GEORGETOWN NOT AVBL KINGSTREE NOT AVBL ORANGEBURG MOSUNNY 86 67 52 S12 30.17S BARNWELL FAIR 86 72 62 SE13 30.17R HX 92 AIKEN MOCLDY 73 70 88 E10 30.23R MANNING FAIR 86 27 11 S6 30.18R COLUMBIA CLOUDY 87 66 49 SE12 30.15S SUMTER PTSUNNY 89 66 47 S10 30.15S HX 91 FLORENCE MOSUNNY 88 71 57 S16 30.17S HX 94 MYRTLE BEACH PTSUNNY 81 68 65 SE13G21 30.24S N MYRTLE BEACH CLOUDY 79 69 71 SE7 30.22F $$ GAZ063-065-086>088-099>101-113>116-118-119-134>141-150-262300- ...SOUTHEAST GEORGIA... CITY SKY/WX TMP DP RH WIND PRES REMARKS SAVANNAH ARPT CLOUDY 84 68 58 SE16 30.18F HUNTER AAF PTSUNNY 82 72 72 SE12 30.17F FORT STEWART MOSUNNY 84 71 64 SE13 30.16S STATESBORO SUNNY 85 72 65 SE6 30.16R HX 91 SYLVANIA PTCLDY 87 69 55 S7 30.17R HX 91 CLAXTON FAIR 84 72 65 SE9 30.16R ...CSRA...CENTRAL AND FAR SOUTHEAST GEORGIA... CITY SKY/WX TMP DP RH WIND PRES REMARKS THOMSON PTSUNNY 88 70 55 CALM 30.21R HX 93 AUGUSTA-BUSH MOSUNNY 85 72 65 SE7 30.13F HX 91 AUGUSTA-DANIEL MOSUNNY 88 69 53 VRB5 30.16S HX 92 SWAINSBORO FAIR 90 68 48 S5 30.16R HX 93 VIDALIA PTSUNNY 88 68 51 SE7 30.15S HX 91 EASTMAN TSTM 73 73 100 NW10 30.21R HAZLEHURST FAIR 88 69 52 CALM 30.13F HX 92 ALMA PTSUNNY 87 68 52 SE10G16 30.14R HX 90 WAYCROSS MOSUNNY 86 73 65 SE10G18 30.15R HX 93 JESUP FAIR 88 72 58 SE9G16 30.17R HX 94 BAXLEY TSTM 88 70 55 S5 30.14S HX 92 BRUNSWICK MOSUNNY 82 68 61 SE12G17 30.19R SAINT SIMONS NOT AVBL $$ SCZ027-028-034-036>038-045-046-048>050-GAZ119-141-262300- ...LAKE AND SUPPLEMENTAL COASTAL OBSERVATIONS... STATION/POSITION TIME TEMP WIND PRES WAVE SWELL AIR SEA DIR/SP/G HT/PER HT/PER/DIR (UTC) (F) (DEG/KT/KT) (MB) (FT/S) (FT/S/D) UPR LAKE MARION NOT AVBL WINYAH BAY 2100 77 130/ 12 1022.0F LAKE MURRAY 2100 81 290/ 4/ 4 1020.7F ACE BASIN NERRS NOT AVBL FORT PULASKI 2200 80 78 140/ 7/ 12 1023.0F SAPELO ISLAND 2200 83 130/ 8 1022.0S $$ ANZ835-935-AMZ111-154-330-350-352-354-370-450-454-472-262300- ...C-MAN AND BUOY OBSERVATIONS... STATION/POSITION TIME TEMP WIND PRES WAVE SWELL AIR SEA DIR/SP/G HT/PER HT/PER/DIR (UTC) (F) (DEG/KT/KT) (MB) (FT/S) (FT/S/D) BUOY 41004 2150 76 76 60/ 10/ 12 1023.0F 3/ 7 3/ 7 BUOY 41008 2150 78 79 110/ 10/ 12 1022.4F 3/ 7 2/ 90/ 7 FOLLY BEACH CMAN 2200 78 140/ 8/ 9 1023.4F CAPERS NEARSHORE 2108 77 120/ 14/ 17 1023.6R FRIPP NEARSHORE NOT AVBL STATION/POSITION TIME TEMP WIND PRES WAVE SWELL AIR SEA DIR/SP/G HT/PER HT/PER/DIR (UTC) (F) (DEG/KT/KT) (MB) (FT/S) (FT/S/D) 5E ST. MARYS GA 2121 79 N/A 3/ 6 FRYING PAN BUOY 2150 78 75 150/ 14/ 17 1024.6F 4/ 6 2/120/ 8 BUOY 41025 2150 75 77 160/ 16/ 17 1025.6F 3/ 7 2/110/ 7 CAPE LOOKOUT NC 2200 74 150/ 14/ 15 1024.6F BUOY 41002 2150 74 75 110/ 12/ 14 1026.3F 3/ 6 3/110/ 6 BUOY 41010 2120 78 81 90/ 16/ 17 1023.0F ST AUGUSTINE FL 2200 79 82 140/ 14/ 16 1022.5R $$

USA.gov is the U.S. government's official web portal to all federal, state and local government web resources and services.